Change the Weather History Date:

Sunday, March 17, 2013

  Actual Average Record
Temperature  
Mean Temperature 10 °F -  
Max Temperature 15 °F 7 °F 28 °F (2005)
Min Temperature 6 °F 0 °F -20 °F (1999)
Degree Days  
Heating Degree Days 55    
Moisture  
Dew Point 9 °F    
Average Humidity 92    
Maximum Humidity 100    
Minimum Humidity 80    
Precipitation  
Precipitation 0.00 in - - ()
Sea Level Pressure  
Sea Level Pressure 30.22 in    
Wind  
Wind Speed 19 mph (East)    
Max Wind Speed 29 mph    
Max Gust Speed 26 mph    
Visibility 7 miles    
Events Fog , Snow    
Averages and records for this station are not official NWS values.
T = Trace of Precipitation, MM = Missing Value Source: NWS Daily Summary

Daily Weather History Graph

Daily Weather History Graph

Search for Another Location

Airport or City:

Trip Planner

Search our weather history database for the weather conditions in past years. The results will help you decide how hot, cold, wet, or windy it might be!

Date:

Astronomy

Mar. 17, 2013 Rise Set
Actual Time 9:21 AM AKDT 9:20 PM AKDT
Civil Twilight 8:31 AM AKDT 10:10 PM AKDT
Nautical Twilight 7:30 AM AKDT 11:11 PM AKDT
Astronomical Twilight 6:21 AM AKDT 12:22 AM AKDT
Moon 10:20 AM AKDT (3/17) 5:00 AM AKDT (3/17)
Length of Visible Light 13h 39m
Length of Day
11h 58m
Waxing Crescent, 33% of the Moon is Illuminated
Mar 17
Waxing Crescent
Mar 19
First Quarter
Mar 27
Full
Apr 2
Last Quarter
Apr 10
New

Hourly Weather History & Observations

Time (AKDT) Temp. Windchill Dew Point Humidity Pressure Visibility Wind Dir Wind Speed Gust Speed Precip Events Conditions
12:18 AM 14.0 °F -5.1 °F 12.2 °F 93% 29.96 in 0.8 mi SSE 24.2 mph - N/A Snow Light Snow
12:38 AM 12.2 °F -7.5 °F 12.2 °F 100% 29.97 in 1.2 mi South 24.2 mph - N/A Snow Light Snow
12:55 AM 12.0 °F -6.9 °F 11.1 °F 96% 29.98 in 1.8 mi South 21.9 mph - N/A Snow Light Snow
1:18 AM 12.2 °F -5.3 °F 10.4 °F 92% 30.00 in 10.0 mi South 18.4 mph - N/A Snow Light Snow
1:38 AM 10.4 °F -7.2 °F 10.4 °F 100% 30.01 in 6.0 mi South 17.3 mph - N/A Snow Light Snow Showers
1:55 AM 12.2 °F -4.3 °F 11.5 °F 97% 30.02 in 7.0 mi South 16.1 mph - N/A Snow Light Snow Showers
2:18 AM 12.2 °F -7.1 °F 12.2 °F 100% 30.04 in 1.5 mi South 23.0 mph 26.5 mph N/A Snow Light Snow Showers
2:38 AM 12.2 °F -5.3 °F 10.4 °F 92% 30.04 in 7.0 mi South 18.4 mph - N/A Snow Light Snow
2:55 AM 11.3 °F -7.0 °F 10.0 °F 95% 30.05 in 3.0 mi South 19.6 mph - N/A Snow Light Snow
3:18 AM 10.4 °F -7.7 °F 8.6 °F 92% 30.07 in 1.8 mi South 18.4 mph - N/A Snow Light Snow
3:38 AM 10.4 °F -9.1 °F 8.6 °F 92% 30.08 in 1.0 mi South 21.9 mph - N/A Snow Light Snow
3:55 AM 9.7 °F -9.6 °F 8.4 °F 95% 30.09 in 0.8 mi South 20.7 mph - N/A Snow Light Snow
4:55 AM 7.9 °F -9.9 °F 6.1 °F 92% 30.12 in 6.0 mi South 16.1 mph - N/A Snow Light Snow
5:38 AM 6.8 °F -5.9 °F 5.0 °F 92% 30.15 in 10.0 mi South 8.1 mph - N/A Snow Light Snow
5:55 AM 6.6 °F -2.2 °F 5.0 °F 93% 30.16 in 10.0 mi SSW 4.6 mph - N/A Snow Light Snow
6:38 AM 6.8 °F -2.0 °F 5.0 °F 92% 30.17 in 10.0 mi South 4.6 mph - N/A Snow Light Snow
6:55 AM 7.2 °F -3.0 °F 6.1 °F 95% 30.18 in 10.0 mi South 5.8 mph - N/A Snow Light Snow
6:58 AM 8.6 °F 0.1 °F 6.8 °F 92% 30.18 in 10.0 mi South 4.6 mph - N/A Snow Light Snow
7:18 AM 8.6 °F -3.7 °F 8.6 °F 100% 30.18 in 10.0 mi South 8.1 mph - N/A Snow Light Snow
7:38 AM 10.4 °F 0.8 °F 8.6 °F 92% 30.19 in 10.0 mi South 5.8 mph - N/A   Clear
7:55 AM 9.7 °F -0.1 °F 8.4 °F 95% 30.20 in 10.0 mi South 5.8 mph - N/A   Clear
8:55 AM 10.4 °F - 8.8 °F 93% 30.22 in 10.0 mi NNE 2.3 mph - N/A   Clear
9:38 AM 6.8 °F -10.0 °F 5.0 °F 92% 30.23 in 10.0 mi NNE 13.8 mph - N/A Snow Light Snow
9:55 AM 9.5 °F -6.6 °F 7.7 °F 92% 30.23 in 10.0 mi NNE 13.8 mph - N/A Snow Light Snow
10:55 AM 12.0 °F -2.7 °F 8.6 °F 86% 30.25 in 10.0 mi NNE 12.7 mph - N/A Snow Light Snow
11:55 AM 13.1 °F -1.4 °F 9.0 °F 84% 30.26 in 10.0 mi NNE 12.7 mph - N/A Snow Light Snow
12:18 PM 12.2 °F -3.1 °F 8.6 °F 85% 30.27 in 10.0 mi NNE 13.8 mph - N/A Snow Light Snow
12:38 PM 12.2 °F -3.7 °F 8.6 °F 85% 30.27 in 10.0 mi NE 15.0 mph - N/A   Mostly Cloudy
12:55 PM 11.3 °F -6.0 °F 7.2 °F 83% 30.28 in 10.0 mi NE 17.3 mph - N/A   Partly Cloudy
1:55 PM 14.9 °F -1.8 °F 10.0 °F 81% 30.29 in 10.0 mi NE 18.4 mph - N/A   Clear
2:55 PM 13.8 °F -4.1 °F 8.6 °F 80% 30.31 in 10.0 mi NNE 20.7 mph - N/A   Mostly Cloudy
3:55 PM 14.2 °F -4.5 °F 9.5 °F 82% 30.32 in 10.0 mi NNE 23.0 mph - N/A   Mostly Cloudy
4:55 PM 14.2 °F -4.5 °F 9.1 °F 80% 30.33 in 10.0 mi NNE 23.0 mph - N/A   Mostly Cloudy
5:55 PM 12.7 °F -6.4 °F 8.4 °F 83% 30.35 in 10.0 mi NNE 23.0 mph - N/A   Mostly Cloudy
6:55 PM 12.9 °F -6.5 °F 8.2 °F 82% 30.36 in 10.0 mi NNE 24.2 mph - N/A   Partly Cloudy
7:55 PM 12.4 °F -8.3 °F 10.0 °F 90% 30.37 in 10.0 mi NNE 27.6 mph - N/A   Scattered Clouds
8:55 PM 12.2 °F -8.2 °F 10.9 °F 95% 30.40 in 10.0 mi NNE 26.5 mph - N/A   Clear
9:18 PM 14.0 °F -6.2 °F 12.2 °F 93% 30.40 in 1.8 mi NNE 27.6 mph - N/A   Scattered Clouds
9:38 PM 14.0 °F -6.2 °F 12.2 °F 93% 30.40 in 0.8 mi NNE 27.6 mph - N/A Snow Light Snow
9:55 PM 13.8 °F -6.7 °F 13.1 °F 97% 30.40 in 1.0 mi NNE 28.8 mph - N/A Snow Light Snow
10:18 PM 14.0 °F -6.2 °F 12.2 °F 93% 30.41 in 1.5 mi NNE 27.6 mph - N/A Snow Light Snow
10:38 PM 14.0 °F -6.5 °F 12.2 °F 93% 30.41 in 0.8 mi NNE 28.8 mph - N/A Snow Light Snow Showers
10:55 PM 13.1 °F -7.0 °F 12.2 °F 96% 30.42 in 0.5 mi NNE 26.5 mph - N/A Fog , Snow Light Snow Showers
11:38 PM 12.2 °F -8.6 °F 12.2 °F 100% 30.42 in 0.2 mi NNE 27.6 mph - N/A Fog , Snow Light Snow
11:55 PM 12.7 °F -8.2 °F 11.8 °F 96% 30.43 in 0.5 mi NNE 28.8 mph - N/A Snow Light Snow